SWA2602 KSBA-KLAS

Flight info

Callsign SWA2602
Flight time 0h 50m
Altitude 35000
Route MISHN5 NNAVY MISEN RNDRZ4
Aircraft B737/M-SADE2E3GIJ4RWZ/LB1D1

Departure

Time 2026-05-05 12:26
Airport Santa Barbara Municipal Airport (KSBA)

Arrival

Time 2026-05-05 13:17
Airport Harry Reid International Airport (KLAS)
Time Latitude Longitude Altitude Speed Heading
2026-05-05 12:09 34.42426 -119.83697 18 ft 0 kts 104°
2026-05-05 12:17 34.42429 -119.83710 18 ft 3 kts 100°
2026-05-05 12:17 34.42430 -119.83734 18 ft 3 kts 80°
2026-05-05 12:17 34.42424 -119.83752 18 ft 3 kts 24°
2026-05-05 12:17 34.42415 -119.83754 18 ft 1 kts 346°
2026-05-05 12:18 34.42411 -119.83753 18 ft 0 kts 346°
2026-05-05 12:18 34.42411 -119.83754 18 ft 0 kts 346°
2026-05-05 12:19 34.42412 -119.83754 18 ft 1 kts 346°
2026-05-05 12:19 34.42449 -119.83765 18 ft 10 kts 346°
2026-05-05 12:20 34.42519 -119.83787 18 ft 10 kts 346°
2026-05-05 12:20 34.42586 -119.83807 18 ft 10 kts 346°
2026-05-05 12:20 34.42650 -119.83830 18 ft 9 kts 333°
2026-05-05 12:20 34.42667 -119.83898 18 ft 9 kts 267°
2026-05-05 12:21 34.42666 -119.83975 18 ft 11 kts 268°
2026-05-05 12:21 34.42663 -119.84090 18 ft 14 kts 268°
2026-05-05 12:21 34.42660 -119.84206 18 ft 13 kts 268°
2026-05-05 12:21 34.42657 -119.84325 18 ft 17 kts 268°
2026-05-05 12:22 34.42653 -119.84495 18 ft 21 kts 268°
2026-05-05 12:22 34.42649 -119.84668 18 ft 20 kts 269°
2026-05-05 12:22 34.42646 -119.84834 18 ft 19 kts 269°
2026-05-05 12:22 34.42644 -119.84993 18 ft 18 kts 269°
2026-05-05 12:23 34.42642 -119.85143 18 ft 17 kts 269°
2026-05-05 12:23 34.42638 -119.85285 18 ft 16 kts 267°
2026-05-05 12:23 34.42673 -119.85380 18 ft 8 kts 307°
2026-05-05 12:23 34.42720 -119.85405 18 ft 8 kts 15°
2026-05-05 12:24 34.42752 -119.85358 18 ft 7 kts 82°
2026-05-05 12:24 34.42753 -119.85342 18 ft 0 kts 88°
2026-05-05 12:25 34.42754 -119.85324 18 ft 9 kts 88°
2026-05-05 12:25 34.42763 -119.85026 18 ft 71 kts 88°
2026-05-05 12:26 34.42784 -119.84145 19 ft 133 kts 88°
2026-05-05 12:26 34.42809 -119.82946 431 ft 147 kts 88°
2026-05-05 12:26 34.42767 -119.81700 1069 ft 153 kts 98°
2026-05-05 12:26 34.42239 -119.80464 1397 ft 179 kts 129°
2026-05-05 12:27 34.41266 -119.79411 1881 ft 198 kts 139°
2026-05-05 12:27 34.40027 -119.78446 2181 ft 224 kts 147°
2026-05-05 12:27 34.38696 -119.77310 2539 ft 244 kts 144°
2026-05-05 12:27 34.37347 -119.75891 2924 ft 270 kts 138°
2026-05-05 12:28 34.35960 -119.74268 3737 ft 279 kts 136°
2026-05-05 12:28 34.34585 -119.72627 4896 ft 277 kts 138°
2026-05-05 12:28 34.33089 -119.71192 5952 ft 278 kts 146°
2026-05-05 12:28 34.31464 -119.69909 6974 ft 281 kts 149°
2026-05-05 12:29 34.29783 -119.68658 7929 ft 285 kts 149°
2026-05-05 12:29 34.28084 -119.67379 8877 ft 289 kts 148°
2026-05-05 12:29 34.26372 -119.66075 9783 ft 293 kts 148°
2026-05-05 12:29 34.24624 -119.64737 10595 ft 301 kts 148°
2026-05-05 12:30 34.23628 -119.63972 10880 ft 312 kts 148°
2026-05-05 12:30 34.21810 -119.62574 11424 ft 326 kts 148°
2026-05-05 12:30 34.19871 -119.61082 12201 ft 334 kts 148°
2026-05-05 12:30 34.17904 -119.59568 13077 ft 337 kts 148°
2026-05-05 12:31 34.15961 -119.57965 13985 ft 341 kts 141°
2026-05-05 12:31 34.14848 -119.56557 14593 ft 344 kts 127°
2026-05-05 12:31 34.13841 -119.54290 15427 ft 347 kts 109°
2026-05-05 12:31 34.13424 -119.51418 16313 ft 351 kts 90°
2026-05-05 12:32 34.13806 -119.48508 17171 ft 354 kts 72°
2026-05-05 12:32 34.14691 -119.45718 18043 ft 358 kts 68°
2026-05-05 12:32 34.15493 -119.42852 18863 ft 363 kts 73°
2026-05-05 12:32 34.16127 -119.39921 19718 ft 366 kts 76°
2026-05-05 12:33 34.16667 -119.36897 20521 ft 370 kts 78°
2026-05-05 12:33 34.17000 -119.34877 21037 ft 373 kts 78°
2026-05-05 12:33 34.17478 -119.32000 21760 ft 376 kts 78°
2026-05-05 12:33 34.17997 -119.28886 22487 ft 380 kts 78°
2026-05-05 12:34 34.18523 -119.25743 23214 ft 384 kts 78°
2026-05-05 12:34 34.19048 -119.22602 23899 ft 387 kts 78°
2026-05-05 12:34 34.19586 -119.19390 24554 ft 392 kts 78°
2026-05-05 12:34 34.20128 -119.16150 25181 ft 396 kts 78°
2026-05-05 12:35 34.20677 -119.12876 25791 ft 400 kts 78°
2026-05-05 12:35 34.21230 -119.09570 26378 ft 403 kts 78°
2026-05-05 12:35 34.21826 -119.06229 26916 ft 408 kts 77°
2026-05-05 12:35 34.22506 -119.02880 27431 ft 413 kts 76°
2026-05-05 12:36 34.23202 -118.99502 27947 ft 417 kts 76°
2026-05-05 12:36 34.23897 -118.96077 28445 ft 420 kts 76°
2026-05-05 12:36 34.24589 -118.92634 28910 ft 425 kts 76°
2026-05-05 12:36 34.25277 -118.89189 29353 ft 429 kts 77°
2026-05-05 12:37 34.25976 -118.85665 29757 ft 434 kts 77°
2026-05-05 12:37 34.26452 -118.83261 30031 ft 436 kts 77°
2026-05-05 12:37 34.26992 -118.80528 30324 ft 440 kts 77°
2026-05-05 12:37 34.27708 -118.76899 30646 ft 446 kts 77°
2026-05-05 12:38 34.28430 -118.73226 30982 ft 451 kts 77°
2026-05-05 12:38 34.29157 -118.69527 31388 ft 454 kts 77°
2026-05-05 12:38 34.29865 -118.66032 31791 ft 456 kts 77°
2026-05-05 12:38 34.30619 -118.62296 32186 ft 459 kts 77°
2026-05-05 12:39 34.31370 -118.58531 32564 ft 461 kts 77°
2026-05-05 12:39 34.32121 -118.54735 32949 ft 464 kts 78°
2026-05-05 12:39 34.32861 -118.50980 33321 ft 466 kts 78°
2026-05-05 12:39 34.33468 -118.47888 33604 ft 468 kts 78°
2026-05-05 12:40 34.34220 -118.44042 33942 ft 470 kts 78°
2026-05-05 12:40 34.34964 -118.40250 34182 ft 476 kts 78°
2026-05-05 12:40 34.35752 -118.36322 34369 ft 481 kts 78°
2026-05-05 12:40 34.36526 -118.32377 34753 ft 481 kts 78°
2026-05-05 12:41 34.37295 -118.28412 34951 ft 484 kts 78°
2026-05-05 12:41 34.38059 -118.24440 34991 ft 485 kts 78°
2026-05-05 12:41 34.39327 -118.17831 34993 ft 483 kts 79°
2026-05-05 12:42 34.41092 -118.08607 34989 ft 481 kts 79°
2026-05-05 12:42 34.42949 -118.00873 34982 ft 482 kts 69°
2026-05-05 12:43 34.45743 -117.93443 34980 ft 487 kts 65°
2026-05-05 12:43 34.48666 -117.86011 34977 ft 487 kts 65°
2026-05-05 12:44 34.51547 -117.78598 34987 ft 486 kts 66°
2026-05-05 12:44 34.54394 -117.71230 34990 ft 486 kts 66°
2026-05-05 12:45 34.57242 -117.63853 34984 ft 486 kts 65°
2026-05-05 12:45 34.60142 -117.56443 34986 ft 486 kts 66°
2026-05-05 12:46 34.63013 -117.49022 34992 ft 485 kts 66°
2026-05-05 12:46 34.65876 -117.41583 34996 ft 486 kts 66°
2026-05-05 12:47 34.68251 -117.35391 34995 ft 486 kts 66°
2026-05-05 12:47 34.71563 -117.26736 34990 ft 487 kts 66°
2026-05-05 12:48 34.74416 -117.19261 34981 ft 487 kts 66°
2026-05-05 12:48 34.76802 -117.12996 34974 ft 487 kts 66°
2026-05-05 12:49 34.79649 -117.05560 34963 ft 488 kts 66°
2026-05-05 12:49 34.82506 -116.98052 34951 ft 489 kts 67°
2026-05-05 12:50 34.85350 -116.90507 34940 ft 490 kts 67°
2026-05-05 12:50 34.86771 -116.86728 34699 ft 492 kts 67°
2026-05-05 12:50 34.88187 -116.82956 34296 ft 487 kts 67°
2026-05-05 12:51 34.89597 -116.79201 33621 ft 488 kts 67°
2026-05-05 12:51 34.91000 -116.75486 32973 ft 489 kts 66°
2026-05-05 12:51 34.92599 -116.71844 32450 ft 487 kts 60°
2026-05-05 12:51 34.94439 -116.68401 31936 ft 484 kts 56°
2026-05-05 12:52 34.96367 -116.65050 31429 ft 480 kts 56°
2026-05-05 12:52 34.98266 -116.61711 30928 ft 476 kts 56°
2026-05-05 12:52 35.00131 -116.58400 30436 ft 472 kts 57°
2026-05-05 12:52 35.01976 -116.55111 29951 ft 468 kts 57°
2026-05-05 12:53 35.03800 -116.51852 29467 ft 463 kts 57°
2026-05-05 12:53 35.05611 -116.48612 28971 ft 458 kts 57°
2026-05-05 12:53 35.07382 -116.45445 28479 ft 454 kts 57°
2026-05-05 12:53 35.09155 -116.42282 27985 ft 449 kts 57°
2026-05-05 12:54 35.13135 -116.36524 27015 ft 440 kts 46°
2026-05-05 12:54 35.15269 -116.33852 26535 ft 435 kts 46°
2026-05-05 12:54 35.17347 -116.31189 26060 ft 430 kts 47°
2026-05-05 12:55 35.19397 -116.28542 25589 ft 425 kts 47°
2026-05-05 12:55 35.21422 -116.25925 25123 ft 420 kts 47°
2026-05-05 12:55 35.23415 -116.23330 24661 ft 415 kts 48°
2026-05-05 12:55 35.25331 -116.20711 24205 ft 411 kts 50°
2026-05-05 12:56 35.27191 -116.18135 23757 ft 406 kts 49°
2026-05-05 12:56 35.29059 -116.15565 23306 ft 402 kts 49°
2026-05-05 12:56 35.30912 -116.13022 22852 ft 397 kts 49°
2026-05-05 12:56 35.32737 -116.10509 22404 ft 393 kts 49°
2026-05-05 12:57 35.34553 -116.08017 21959 ft 389 kts 49°
2026-05-05 12:57 35.36346 -116.05551 21516 ft 385 kts 49°
2026-05-05 12:57 35.38126 -116.03113 21074 ft 382 kts 48°
2026-05-05 12:57 35.39896 -116.00708 20634 ft 378 kts 49°
2026-05-05 12:58 35.41641 -115.98316 20194 ft 374 kts 49°
2026-05-05 12:58 35.43367 -115.95940 19753 ft 371 kts 49°
2026-05-05 12:58 35.45070 -115.93588 19315 ft 368 kts 49°
2026-05-05 12:58 35.46762 -115.91247 18881 ft 364 kts 49°
2026-05-05 12:59 35.48428 -115.88940 18540 ft 358 kts 49°
2026-05-05 12:59 35.50070 -115.86665 18119 ft 355 kts 49°
2026-05-05 12:59 35.51703 -115.84401 17685 ft 351 kts 49°
2026-05-05 13:00 35.54896 -115.79972 16808 ft 346 kts 49°
2026-05-05 13:00 35.56489 -115.77762 16358 ft 344 kts 49°
2026-05-05 13:01 35.61121 -115.71400 15699 ft 324 kts 47°
2026-05-05 13:01 35.62643 -115.69365 15493 ft 324 kts 47°
2026-05-05 13:01 35.64164 -115.67317 15284 ft 324 kts 48°
2026-05-05 13:01 35.65679 -115.65270 15071 ft 324 kts 48°
2026-05-05 13:02 35.67175 -115.63244 14860 ft 323 kts 48°
2026-05-05 13:02 35.68686 -115.61196 14646 ft 322 kts 48°
2026-05-05 13:02 35.70187 -115.59163 14433 ft 320 kts 48°
2026-05-05 13:02 35.71660 -115.57126 14218 ft 318 kts 51°
2026-05-05 13:03 35.72813 -115.54816 14011 ft 316 kts 64°
2026-05-05 13:03 35.73674 -115.52317 13799 ft 316 kts 69°
2026-05-05 13:03 35.74417 -115.49780 13586 ft 314 kts 72°
2026-05-05 13:03 35.75107 -115.47230 13376 ft 313 kts 72°
2026-05-05 13:04 35.75789 -115.44694 13169 ft 311 kts 72°
2026-05-05 13:04 35.76469 -115.42170 12963 ft 310 kts 72°
2026-05-05 13:04 35.77169 -115.39656 12758 ft 310 kts 72°
2026-05-05 13:04 35.77831 -115.37261 12562 ft 309 kts 72°
2026-05-05 13:05 35.78516 -115.34752 12357 ft 308 kts 72°
2026-05-05 13:05 35.79193 -115.32254 12153 ft 307 kts 72°
2026-05-05 13:05 35.79864 -115.29765 11951 ft 306 kts 72°
2026-05-05 13:05 35.80534 -115.27271 11748 ft 305 kts 72°
2026-05-05 13:06 35.81198 -115.24794 11546 ft 304 kts 73°
2026-05-05 13:06 35.81859 -115.22323 11344 ft 303 kts 73°
2026-05-05 13:06 35.82516 -115.19863 11144 ft 302 kts 73°
2026-05-05 13:06 35.83172 -115.17408 10942 ft 302 kts 73°
2026-05-05 13:07 35.83825 -115.14960 10741 ft 300 kts 73°
2026-05-05 13:07 35.84476 -115.12519 10542 ft 299 kts 73°
2026-05-05 13:07 35.85120 -115.10106 10344 ft 299 kts 73°
2026-05-05 13:07 35.85772 -115.07666 10144 ft 299 kts 73°
2026-05-05 13:08 35.86414 -115.05269 9944 ft 290 kts 73°
2026-05-05 13:08 35.87270 -115.03031 9738 ft 288 kts 60°
2026-05-05 13:08 35.88504 -115.01092 9559 ft 288 kts 50°
2026-05-05 13:08 35.89904 -114.99320 9366 ft 289 kts 46°
2026-05-05 13:09 35.91314 -114.97553 9171 ft 288 kts 48°
2026-05-05 13:09 35.92681 -114.95754 8978 ft 287 kts 49°
2026-05-05 13:09 35.94029 -114.93941 8785 ft 286 kts 50°
2026-05-05 13:09 35.95353 -114.92135 8593 ft 280 kts 50°
2026-05-05 13:10 35.96640 -114.90377 8406 ft 272 kts 50°
2026-05-05 13:10 35.97888 -114.88673 8226 ft 263 kts 50°
2026-05-05 13:10 35.99127 -114.87057 8042 ft 256 kts 46°
2026-05-05 13:10 36.00593 -114.85877 7872 ft 251 kts 27°
2026-05-05 13:11 36.02270 -114.85200 7488 ft 254 kts 16°
2026-05-05 13:11 36.03986 -114.84691 7151 ft 253 kts 15°
2026-05-05 13:11 36.05690 -114.84389 6811 ft 248 kts
2026-05-05 13:11 36.07301 -114.85010 6442 ft 242 kts 326°
2026-05-05 13:12 36.08314 -114.86591 6019 ft 234 kts 294°
2026-05-05 13:12 36.08351 -114.88508 5757 ft 219 kts 255°
2026-05-05 13:12 36.07932 -114.90294 5510 ft 215 kts 253°
2026-05-05 13:12 36.07662 -114.92082 5271 ft 208 kts 258°
2026-05-05 13:13 36.07483 -114.93825 5005 ft 200 kts 260°
2026-05-05 13:13 36.07405 -114.95481 4831 ft 188 kts 264°
2026-05-05 13:13 36.07388 -114.97067 4600 ft 181 kts 267°
2026-05-05 13:13 36.07382 -114.98572 4374 ft 174 kts 267°
2026-05-05 13:14 36.07379 -115.00045 4168 ft 169 kts 268°
2026-05-05 13:14 36.07377 -115.01484 3995 ft 167 kts 268°
2026-05-05 13:14 36.07376 -115.02917 3718 ft 162 kts 268°
2026-05-05 13:14 36.07374 -115.04269 3481 ft 152 kts 267°
2026-05-05 13:15 36.07373 -115.05542 3289 ft 145 kts 266°
2026-05-05 13:15 36.07372 -115.06767 3111 ft 141 kts 266°
2026-05-05 13:15 36.07371 -115.07972 2921 ft 137 kts 266°
2026-05-05 13:15 36.07371 -115.09141 2749 ft 135 kts 266°
2026-05-05 13:16 36.07375 -115.10309 2549 ft 137 kts 266°
2026-05-05 13:16 36.07371 -115.11479 2391 ft 135 kts 266°
2026-05-05 13:16 36.07364 -115.12633 2217 ft 136 kts 266°
2026-05-05 13:16 36.07361 -115.13728 2190 ft 108 kts 265°
2026-05-05 13:17 36.07354 -115.14340 2189 ft 51 kts 270°
2026-05-05 13:17 36.07359 -115.14628 2189 ft 28 kts 270°
2026-05-05 13:17 36.07374 -115.14789 2189 ft 17 kts 284°
2026-05-05 13:17 36.07394 -115.14868 2189 ft 5 kts 290°
2026-05-05 13:18 36.07412 -115.14921 2189 ft 11 kts 294°
2026-05-05 13:18 36.07457 -115.15034 2189 ft 16 kts 301°
2026-05-05 13:18 36.07533 -115.15129 2189 ft 15 kts 327°
2026-05-05 13:18 36.07624 -115.15189 2189 ft 14 kts 334°
2026-05-05 13:19 36.07694 -115.15232 2189 ft 11 kts 334°
2026-05-05 13:19 36.07709 -115.15241 2189 ft 0 kts 334°
2026-05-05 13:19 36.07710 -115.15241 2189 ft 1 kts 334°
2026-05-05 13:19 36.07760 -115.15272 2189 ft 14 kts 334°
2026-05-05 13:20 36.07842 -115.15304 2189 ft 12 kts 20°
2026-05-05 13:20 36.07893 -115.15229 2189 ft 11 kts 53°
2026-05-05 13:20 36.07965 -115.15205 2189 ft 11 kts 359°
2026-05-05 13:20 36.08039 -115.15203 2189 ft 10 kts 12°
2026-05-05 13:21 36.08095 -115.15153 2189 ft 10 kts 54°
2026-05-05 13:21 36.08130 -115.15091 2189 ft 6 kts 52°
2026-05-05 13:21 36.08156 -115.15056 2189 ft 5 kts 46°
2026-05-05 13:21 36.08188 -115.15038 2189 ft 5 kts 349°
2026-05-05 13:22 36.08218 -115.15054 2189 ft 3 kts 337°
2026-05-05 13:22 36.08232 -115.15061 2189 ft 0 kts 340°